Location: Kitchener
(43.4500°N, 80.5000°W)
Time: 23:15:11
(UTC-04:00)

OTV 5 (USA 277) - Visible Passes

Search period start: 23 September 2017 00:00
Search period end: 03 October 2017 00:00
Orbit: 404 x 417 km, 43.0° (Epoch: 07 September)

Date Brightness Start Highest point End Pass type
(mag) Time Alt. Az. Time Alt. Az. Time Alt. Az.
23 Sep ? 04:39:26 17° E 04:39:26 17° E 04:40:23 10° E visible
23 Sep ? 06:12:11 19° W 06:14:26 84° S 06:17:44 10° E visible
24 Sep ? 05:23:32 75° SE 05:23:32 75° SE 05:26:41 10° E visible
25 Sep ? 04:34:54 15° E 04:34:54 15° E 04:35:37 10° E visible
25 Sep ? 06:07:40 22° W 06:09:37 80° S 06:12:54 10° E visible
26 Sep ? 05:19:03 61° ESE 05:19:03 61° ESE 05:21:51 10° E visible
27 Sep ? 04:30:30 12° E 04:30:30 12° E 04:30:48 10° E visible
27 Sep ? 06:03:16 28° W 06:04:45 57° SSW 06:07:58 10° ESE visible
28 Sep ? 05:14:46 39° ESE 05:14:46 39° ESE 05:16:59 10° ESE visible
29 Sep ? 05:59:09 30° SW 05:59:47 33° SSW 06:02:46 10° SE visible
30 Sep ? 05:10:51 19° SE 05:10:51 19° SE 05:11:57 10° SE visible
30 Sep ? 06:44:20 10° WSW 06:45:33 12° SW 06:46:47 10° SSW visible
01 Oct ? 05:55:27 16° SSW 05:55:27 16° SSW 05:56:54 10° SSE visible
